• în România
  • Lista ţărilor
  • Pe 7 zile
  • Temperatura apei
  • Hartă satelitară
  • Meteo pe hartă
  • Widget-uri
  • user-avatar
    Intrare

    Meteo pe oră la Bolshaya Ivanovka

    Astăzi, 15 August, Miercuri

    Timp Temperatura Precipitaţii Vânt Presiune Umiditate
    00:00 +16°C° 0 mm 1 m/s 737 mmHg 74%
    01:00 +16°C° 0 mm 1 m/s 737 mmHg 76%
    02:00 +16°C° 0 mm 1 m/s 737 mmHg 77%
    03:00 +15°C° 0 mm 1 m/s 738 mmHg 77%
    04:00 +16°C° 0 mm 1 m/s 738 mmHg 77%
    05:00 +16°C° 0 mm 1 m/s 738 mmHg 76%
    06:00 +16°C° 0 mm 1 m/s 738 mmHg 75%
    07:00 +17°C° 0 mm 0 m/s 739 mmHg 68%
    08:00 +20°C° 0 mm 0 m/s 739 mmHg 61%
    09:00 +22°C° 0 mm 0 m/s 739 mmHg 53%
    10:00 +23°C° 0 mm 0 m/s 739 mmHg 48%
    11:00 +26°C° 0 mm 1 m/s 739 mmHg 44%
    12:00 +27°C° 0 mm 1 m/s 739 mmHg 39%
    13:00 +27°C° 0 mm 1 m/s 739 mmHg 37%
    14:00 +27°C° 0 mm 1 m/s 739 mmHg 36%
    15:00 +28°C° 0 mm 2 m/s 739 mmHg 35%
    16:00 +27°C° 0 mm 1 m/s 739 mmHg 38%
    17:00 +27°C° 0 mm 1 m/s 739 mmHg 41%
    18:00 +26°C° 0 mm 1 m/s 738 mmHg 44%
    19:00 +25°C° 0 mm 1 m/s 738 mmHg 46%
    20:00 +23°C° 0 mm 1 m/s 738 mmHg 48%
    21:00 +21°C° 0 mm 1 m/s 738 mmHg 50%
    22:00 +21°C° 0 mm 1 m/s 738 mmHg 50%
    23:00 +20°C° 0 mm 2 m/s 738 mmHg 50%

    Mâine, 16 August, Joi

    Timp Temperatura Precipitaţii Vânt Presiune Umiditate
    00:00 +19°C° 0 mm 2 m/s 738 mmHg 51%
    01:00 +19°C° 0 mm 2 m/s 738 mmHg 52%
    02:00 +19°C° 0 mm 2 m/s 738 mmHg 52%
    03:00 +18°C° 0 mm 2 m/s 738 mmHg 53%
    04:00 +18°C° 0 mm 2 m/s 738 mmHg 55%
    05:00 +19°C° 0 mm 2 m/s 738 mmHg 57%
    06:00 +19°C° 0 mm 2 m/s 738 mmHg 59%
    07:00 +21°C° 0 mm 3 m/s 738 mmHg 55%
    08:00 +23°C° 0 mm 4 m/s 738 mmHg 50%
    09:00 +26°C° 0 mm 4 m/s 738 mmHg 46%
    10:00 +27°C° 0 mm 4 m/s 738 mmHg 43%
    11:00 +29°C° 0 mm 4 m/s 738 mmHg 40%
    12:00 +30°C° 0 mm 4 m/s 738 mmHg 37%
    13:00 +30°C° 0 mm 4 m/s 738 mmHg 36%
    14:00 +32°C° 0 mm 4 m/s 738 mmHg 36%
    15:00 +31°C° 0 mm 3 m/s 737 mmHg 35%
    16:00 +30°C° 0 mm 3 m/s 737 mmHg 38%
    17:00 +29°C° 0 mm 2 m/s 737 mmHg 42%
    18:00 +29°C° 0 mm 2 m/s 737 mmHg 45%
    19:00 +27°C° 0 mm 2 m/s 737 mmHg 47%
    20:00 +25°C° 0 mm 1 m/s 737 mmHg 49%
    21:00 +24°C° 0 mm 1 m/s 737 mmHg 51%
    22:00 +23°C° 0 mm 1 m/s 737 mmHg 51%
    23:00 +23°C° 0 mm 1 m/s 737 mmHg 52%

    Poimâine, 17 August, Vineri

    Timp Temperatura Precipitaţii Vânt Presiune Umiditate
    00:00 +23°C° 0 mm 1 m/s 737 mmHg 52%
    01:00 +22°C° 0 mm 1 m/s 736 mmHg 53%
    02:00 +22°C° 0 mm 1 m/s 736 mmHg 54%
    03:00 +21°C° 0 mm 1 m/s 736 mmHg 55%
    04:00 +21°C° 0 mm 1 m/s 736 mmHg 57%
    05:00 +22°C° 0 mm 1 m/s 736 mmHg 58%
    06:00 +22°C° 0 mm 1 m/s 736 mmHg 60%
    07:00 +23°C° 0 mm 1 m/s 737 mmHg 57%
    08:00 +24°C° 0 mm 1 m/s 737 mmHg 55%
    09:00 +25°C° 0 mm 1 m/s 737 mmHg 53%
    10:00 +26°C° 0 mm 2 m/s 737 mmHg 52%
    11:00 +26°C° 0 mm 2 m/s 737 mmHg 51%
    12:00 +27°C° 0 mm 2 m/s 737 mmHg 50%
    13:00 +27°C° 0,4 mm 2 m/s 737 mmHg 51%
    14:00 +27°C° 0,4 mm 3 m/s 737 mmHg 52%
    15:00 +27°C° 0,4 mm 3 m/s 737 mmHg 53%
    16:00 +26°C° 0,2 mm 3 m/s 737 mmHg 59%
    17:00 +25°C° 0,2 mm 3 m/s 737 mmHg 65%
    18:00 +23°C° 0,2 mm 4 m/s 737 mmHg 71%
    19:00 +22°C° 0,1 mm 4 m/s 737 mmHg 76%
    20:00 +20°C° 0,1 mm 3 m/s 737 mmHg 81%
    21:00 +19°C° 0,1 mm 3 m/s 737 mmHg 85%
    22:00 +18°C° 0,1 mm 3 m/s 737 mmHg 86%
    23:00 +17°C° 0,1 mm 3 m/s 737 mmHg 86%

    18 August, Sâmbătă

    Timp Temperatura Precipitaţii Vânt Presiune Umiditate
    00:00 +17°C° 0,1 mm 3 m/s 737 mmHg 86%
    01:00 +16°C° 0 mm 3 m/s 738 mmHg 85%
    02:00 +16°C° 0 mm 3 m/s 738 mmHg 85%
    03:00 +14°C° 0 mm 4 m/s 738 mmHg 84%
    04:00 +14°C° 0 mm 4 m/s 738 mmHg 84%
    05:00 +14°C° 0 mm 4 m/s 738 mmHg 84%
    06:00 +14°C° 0 mm 4 m/s 739 mmHg 83%
    07:00 +16°C° 0 mm 5 m/s 739 mmHg 74%
    08:00 +17°C° 0 mm 5 m/s 739 mmHg 65%
    09:00 +20°C° 0 mm 6 m/s 739 mmHg 56%
    10:00 +21°C° 0 mm 5 m/s 739 mmHg 52%
    11:00 +22°C° 0 mm 5 m/s 739 mmHg 47%
    12:00 +22°C° 0 mm 5 m/s 739 mmHg 43%
    13:00 +23°C° 0 mm 5 m/s 739 mmHg 42%
    14:00 +23°C° 0 mm 5 m/s 739 mmHg 41%
    15:00 +23°C° 0 mm 5 m/s 739 mmHg 40%
    16:00 +22°C° 0 mm 5 m/s 739 mmHg 45%
    17:00 +22°C° 0 mm 4 m/s 739 mmHg 49%
    18:00 +21°C° 0 mm 4 m/s 739 mmHg 54%
    19:00 +19°C° 0 mm 4 m/s 740 mmHg 58%
    20:00 +18°C° 0 mm 4 m/s 740 mmHg 62%
    21:00 +15°C° 0 mm 4 m/s 740 mmHg 67%
    22:00 +14°C° 0 mm 3 m/s 740 mmHg 68%
    23:00 +13°C° 0 mm 3 m/s 740 mmHg 70%

    19 August, Duminică

    Timp Temperatura Precipitaţii Vânt Presiune Umiditate
    00:00 +13°C° 0 mm 3 m/s 740 mmHg 71%
    01:00 +12°C° 0 mm 3 m/s 740 mmHg 74%
    02:00 +12°C° 0 mm 3 m/s 740 mmHg 76%
    03:00 +11°C° 0 mm 3 m/s 741 mmHg 79%
    04:00 +11°C° 0 mm 3 m/s 741 mmHg 79%
    05:00 +11°C° 0 mm 3 m/s 741 mmHg 79%
    06:00 +11°C° 0 mm 3 m/s 741 mmHg 79%
    07:00 +13°C° 0 mm 3 m/s 741 mmHg 72%
    08:00 +15°C° 0 mm 4 m/s 741 mmHg 65%
    09:00 +18°C° 0 mm 4 m/s 741 mmHg 57%
    10:00 +19°C° 0 mm 4 m/s 741 mmHg 52%
    11:00 +20°C° 0 mm 4 m/s 741 mmHg 48%
    12:00 +21°C° 0 mm 4 m/s 741 mmHg 43%
    13:00 +21°C° 0 mm 4 m/s 741 mmHg 42%
    14:00 +22°C° 0 mm 4 m/s 741 mmHg 41%
    15:00 +22°C° 0 mm 4 m/s 740 mmHg 39%
    16:00 +21°C° 0 mm 4 m/s 740 mmHg 43%
    17:00 +20°C° 0 mm 3 m/s 740 mmHg 47%
    18:00 +20°C° 0 mm 3 m/s 740 mmHg 51%
    19:00 +18°C° 0 mm 3 m/s 740 mmHg 55%
    20:00 +16°C° 0 mm 2 m/s 740 mmHg 59%
    21:00 +15°C° 0 mm 2 m/s 740 mmHg 64%
    22:00 +14°C° 0 mm 2 m/s 740 mmHg 66%
    23:00 +13°C° 0 mm 2 m/s 740 mmHg 68%

    20 August, Luni

    Timp Temperatura Precipitaţii Vânt Presiune Umiditate
    00:00 +13°C° 0 mm 2 m/s 740 mmHg 70%
    01:00 +12°C° 0 mm 2 m/s 740 mmHg 72%
    02:00 +12°C° 0 mm 2 m/s 740 mmHg 74%
    03:00 +10°C° 0 mm 2 m/s 740 mmHg 76%
    04:00 +12°C° 0 mm 1 m/s 740 mmHg 76%
    05:00 +12°C° 0 mm 1 m/s 740 mmHg 77%
    06:00 +12°C° 0 mm 1 m/s 740 mmHg 77%
    07:00 +14°C° 0 mm 1 m/s 740 mmHg 70%
    08:00 +16°C° 0 mm 1 m/s 740 mmHg 63%
    09:00 +19°C° 0 mm 1 m/s 740 mmHg 56%
    10:00 +20°C° 0 mm 1 m/s 740 mmHg 51%
    11:00 +22°C° 0 mm 1 m/s 740 mmHg 46%
    12:00 +23°C° 0 mm 1 m/s 740 mmHg 40%
    13:00 +24°C° 0 mm 1 m/s 740 mmHg 39%
    14:00 +24°C° 0 mm 1 m/s 740 mmHg 37%
    15:00 +25°C° 0 mm 1 m/s 740 mmHg 35%
    16:00 +24°C° 0 mm 1 m/s 739 mmHg 38%
    17:00 +21°C° 0 mm 0 m/s 739 mmHg 41%
    18:00 +21°C° 0 mm 0 m/s 739 mmHg 44%
    19:00 +19°C° 0 mm 0 m/s 739 mmHg 46%
    20:00 +17°C° 0 mm 0 m/s 739 mmHg 48%
    21:00 +16°C° 0 mm 0 m/s 739 mmHg 50%
    22:00 +16°C° 0 mm 1 m/s 739 mmHg 52%
    23:00 +16°C° 0 mm 1 m/s 739 mmHg 53%
    Arată mai mult